[[{"header":{"parameterUnit":"m.s-1","parameterCategory":2,"la1":30.2992,"la2":30.254,"lo1":-89.0895,"lo2":-89.0443,"dy":0.0025,"dx":0.0025,"nx":19,"ny":19,"refTime":"2026-05-21T09:00:00:Z","depth":"0","parameterNumber":2,"parameterNumberName":"U-component_of_CURRENTS"},"data":[0,0,0,-0.1299,-0.1299,-0.1313,-0.1313,-0.1283,-0.1282,0,0,0,0,0,0,0,0,0,0,0,-0.1289,-0.129,-0.1299,-0.1299,-0.1313,-0.1313,-0.1283,-0.1282,0,0,0,0,0,0,0,0,0,0,0,-0.1289,-0.129,-0.129,-0.1299,-0.1313,-0.1313,-0.1283,-0.1283,0,0,0,0,0,0,0,0,0,0,-0.1275,-0.1267,-0.129,-0.129,-0.1299,-0.1313,-0.1313,-0.1283,-0.1283,-0.1264,0,-0.1268,0,-0.1277,-0.128,-0.1279,0,0,0,-0.1294,-0.1268,-0.1281,-0.129,-0.13,-0.1313,-0.1305,-0.1283,-0.1283,-0.1263,-0.1268,-0.1267,-0.1277,-0.1279,-0.1279,-0.1256,-0.1256,0,0,-0.1293,-0.1281,-0.1282,-0.1281,-0.1305,-0.1305,-0.1306,-0.1284,-0.1276,-0.1268,-0.1267,-0.1276,-0.1279,-0.1279,-0.1256,-0.1256,0,0,0,-0.1294,-0.128,-0.1295,-0.1281,-0.129,-0.1306,-0.1307,-0.1277,-0.1285,-0.1267,-0.1276,-0.1279,-0.1278,-0.1256,-0.1256,-0.1304,0,0,0,-0.1294,-0.1282,-0.1295,-0.1286,-0.1291,-0.1289,-0.1301,-0.1287,-0.1285,-0.1276,-0.1279,-0.1278,-0.1256,-0.1256,-0.1303,-0.1256,0,0,0,-0.1289,-0.1281,-0.1286,-0.1285,-0.1296,-0.129,-0.1296,-0.1287,-0.129,-0.1279,-0.1278,-0.1256,-0.1256,-0.1301,-0.1256,-0.0944,0,0,0,-0.1271,-0.1287,-0.1285,-0.131,-0.1296,-0.1333,-0.1296,-0.1305,-0.13,-0.1279,-0.1256,-0.1256,-0.1301,-0.1255,-0.095,-0.0545,-0.0488,0,0,-0.1287,-0.1288,-0.1308,-0.1308,-0.1341,-0.133,-0.1343,-0.1311,-0.1292,-0.1259,-0.1259,-0.1303,-0.1256,-0.0945,-0.0553,-0.0495,0,0,0,-0.1312,-0.1314,-0.1331,-0.1344,-0.1371,-0.1363,-0.1344,-0.1326,-0.1302,-0.129,-0.1292,-0.1258,-0.106,-0.0829,-0.0785,-0.0732,-0.1257,-0.1257,-0.1257,-0.1278,-0.131,-0.133,-0.1357,-0.1379,-0.1375,-0.1362,-0.1325,-0.1325,-0.1315,-0.1293,-0.1084,-0.085,-0.0808,-0.0768,-0.1323,-0.1323,-0.1323,-0.1323,-0.1271,-0.1264,-0.131,-0.1343,-0.1354,-0.1364,-0.1351,-0.1341,-0.1191,-0.1301,-0.1104,-0.0891,-0.076,-0.0734,-0.1326,-0.1326,-0.1325,-0.1325,-0.1325,-0.1218,-0.1213,-0.1257,-0.1283,-0.1285,-0.1312,-0.1113,-0.1151,-0.1155,-0.1068,-0.0563,-0.0557,-0.0511,-0.088,-0.0878,-0.0877,-0.0876,-0.0874,-0.0874,-0.1119,-0.1162,-0.1134,-0.1192,-0.1141,-0.1038,-0.0913,-0.0717,-0.0473,-0.0489,-0.0482,-0.0409,-0.0941,-0.0932,-0.085,-0.0855,-0.0858,-0.086,-0.0861,-0.0956,-0.1018,-0.0952,-0.0903,-0.0754,-0.0518,-0.0408,0.0073,0.0283,0.0483,0.0299,-0.0103,0.0029,-0.0005,0.0031,0.036,0.036,0.036,0.036,-0.0814,-0.086,-0.0699,-0.0542,-0.0341,-0.0223,0.0308,0.0596,0.0825,0.0908,0.0816,0.0696,0.0645,0.0799,0.0747,0.0792,0.1306,0.1306,0.1307,-0.0632,-0.0642,-0.0443,-0.0379,-0.0146,0.0125,0.052,0.082,0.119,0.1326,0.0805,0.0765,0.0543,0.0459,0.065,0.0573,0.0626,0,0]},{"header":{"parameterUnit":"m.s-1","parameterCategory":2,"la1":30.2992,"la2":30.254,"lo1":-89.0895,"lo2":-89.0443,"dy":0.0025,"dx":0.0025,"nx":19,"ny":19,"refTime":"2026-05-21T09:00:00:Z","depth":"0","parameterNumber":3,"parameterNumberName":"V-component_of_CURRENTS"},"data":[0,0,0,-0.0206,-0.0205,-0.0156,-0.0156,-0.0064,-0.0063,0,0,0,0,0,0,0,0,0,0,0,-0.0221,-0.0221,-0.0206,-0.0205,-0.0157,-0.0156,-0.0064,-0.0063,0,0,0,0,0,0,0,0,0,0,0,-0.0221,-0.0221,-0.0221,-0.0205,-0.0157,-0.0156,-0.0064,-0.0105,0,0,0,0,0,0,0,0,0,0,-0.0155,-0.0179,-0.0221,-0.0221,-0.0205,-0.0157,-0.0156,-0.0107,-0.0102,-0.0081,0,-0.0081,0,-0.0075,-0.0057,-0.0057,0,0,0,-0.0192,-0.0183,-0.0172,-0.0221,-0.0205,-0.0157,-0.0175,-0.0105,-0.0099,-0.0075,-0.008,-0.0077,-0.0074,-0.0057,-0.0056,-0.006,-0.0061,0,0,-0.0195,-0.0206,-0.0176,-0.0169,-0.0201,-0.0177,-0.0174,-0.0102,-0.0098,-0.008,-0.0075,-0.0072,-0.0056,-0.0055,-0.006,-0.0061,0,0,0,-0.0211,-0.0208,-0.0199,-0.0172,-0.0169,-0.0175,-0.0172,-0.0101,-0.0099,-0.0074,-0.0071,-0.0055,-0.0054,-0.0059,-0.006,-0.0199,0,0,0,-0.0212,-0.0219,-0.0201,-0.0206,-0.0171,-0.0139,-0.0173,-0.0104,-0.0096,-0.0072,-0.0055,-0.0054,-0.0058,-0.0059,-0.0193,-0.0099,0,0,0,-0.0222,-0.022,-0.0218,-0.0207,-0.0192,-0.014,-0.0133,-0.0102,-0.0094,-0.0057,-0.0053,-0.0058,-0.0059,-0.0188,-0.0095,0.0156,0,0,0,-0.0229,-0.0266,-0.0218,-0.0262,-0.0193,-0.0222,-0.0134,-0.0125,-0.0101,-0.0055,-0.0058,-0.006,-0.0187,-0.0093,0.0153,0.0355,0.0384,0,0,-0.0289,-0.0273,-0.0303,-0.0261,-0.0333,-0.0227,-0.028,-0.0193,-0.0118,-0.0075,-0.0075,-0.0195,-0.0095,0.0155,0.026,0.0293,0,0,0,-0.0333,-0.0368,-0.0377,-0.0404,-0.0387,-0.0355,-0.0301,-0.0254,-0.0208,-0.0113,-0.0189,-0.0117,0.0045,0.0158,0.0182,0.0204,-0.0067,-0.0067,-0.0067,-0.0436,-0.0449,-0.0514,-0.0533,-0.0525,-0.0456,-0.0396,-0.0317,-0.0302,-0.0301,-0.0235,-0.0128,-0.0025,0.0,0.0011,-0.0319,-0.032,-0.032,-0.032,-0.0569,-0.0599,-0.0607,-0.0675,-0.0621,-0.0621,-0.0487,-0.0439,-0.0259,-0.0335,-0.0173,-0.0002,0.002,0.0022,-0.0329,-0.0328,-0.0327,-0.0326,-0.0325,-0.0652,-0.0653,-0.0711,-0.0738,-0.0688,-0.0606,-0.0359,-0.0307,-0.025,-0.0161,0.0183,0.0188,0.0224,-0.0042,-0.004,-0.0039,-0.0038,-0.0037,-0.0036,-0.0663,-0.0719,-0.0714,-0.0731,-0.0636,-0.0451,-0.0207,-0.0019,0.02,0.0208,0.0211,0.027,-0.0034,-0.0006,-0.0014,-0.0018,-0.0021,-0.0023,-0.0024,-0.0659,-0.0677,-0.0631,-0.0564,-0.0328,-0.0024,0.0126,0.0527,0.0721,0.0873,0.0686,0.0457,0.0615,0.0596,0.0643,0.0807,0.0807,0.0808,0.0808,-0.0596,-0.0626,-0.046,-0.0261,-0.001,0.0224,0.0693,0.0946,0.109,0.1111,0.1029,0.0868,0.0834,0.0995,0.0966,0.1017,0.1272,0.1272,0.1272,-0.0499,-0.0464,-0.0276,-0.0136,0.0168,0.0509,0.092,0.121,0.1326,0.1281,0.1019,0.1,0.0735,0.068,0.0899,0.0857,0.0929,0,0]}],[{"header":{"parameterUnit":"m.s-1","parameterCategory":2,"la1":30.2992,"la2":30.254,"lo1":-89.0895,"lo2":-89.0443,"dy":0.0025,"dx":0.0025,"nx":19,"ny":19,"refTime":"2026-05-21T09:00:00:Z","depth":"2","parameterNumber":2,"parameterNumberName":"U-component_of_CURRENTS"},"data":[0,0,0,-0.1352,-0.1352,-0.1374,-0.1374,-0.1371,-0.137,0,0,0,0,0,0,0,0,0,0,0,-0.134,-0.134,-0.1352,-0.1352,-0.1374,-0.1374,-0.1371,-0.137,0,0,0,0,0,0,0,0,0,0,0,-0.134,-0.134,-0.1341,-0.1352,-0.1374,-0.1374,-0.1371,-0.1361,0,0,0,0,0,0,0,0,0,0,-0.1344,-0.1333,-0.134,-0.1341,-0.1353,-0.1374,-0.1374,-0.1361,-0.1362,-0.1352,0,-0.1356,0,-0.1365,-0.137,-0.137,0,0,0,-0.135,-0.1332,-0.1345,-0.1341,-0.1353,-0.1374,-0.1364,-0.1362,-0.1363,-0.1353,-0.1356,-0.1356,-0.1365,-0.137,-0.137,-0.1408,-0.1408,0,0,-0.1349,-0.1337,-0.1345,-0.1346,-0.1358,-0.1363,-0.1364,-0.1363,-0.1358,-0.1356,-0.1356,-0.1365,-0.1369,-0.1369,-0.1407,-0.1408,0,0,0,-0.1347,-0.1336,-0.1349,-0.1345,-0.1353,-0.1364,-0.1365,-0.1358,-0.1365,-0.1356,-0.1365,-0.1369,-0.1369,-0.1407,-0.1407,-0.1449,0,0,0,-0.1346,-0.1335,-0.1349,-0.1341,-0.1353,-0.1359,-0.1361,-0.1365,-0.1365,-0.1365,-0.1369,-0.1369,-0.1406,-0.1407,-0.1447,-0.1424,0,0,0,-0.1339,-0.1335,-0.1339,-0.134,-0.1353,-0.1359,-0.1366,-0.1365,-0.137,-0.137,-0.1369,-0.1406,-0.1407,-0.1445,-0.1421,-0.119,0,0,0,-0.1325,-0.1339,-0.1338,-0.1364,-0.1352,-0.1404,-0.1366,-0.1387,-0.1392,-0.1369,-0.1406,-0.1407,-0.1444,-0.142,-0.1193,-0.1142,-0.1124,0,0,-0.134,-0.1341,-0.1361,-0.1361,-0.1412,-0.1401,-0.1454,-0.1432,-0.1406,-0.1402,-0.1404,-0.1448,-0.1421,-0.1191,-0.1211,-0.1191,0,0,0,-0.1365,-0.1375,-0.1393,-0.1419,-0.1452,-0.1478,-0.1477,-0.1466,-0.1456,-0.1414,-0.146,-0.1442,-0.1293,-0.1271,-0.1256,-0.1413,-0.1413,-0.1413,-0.1413,-0.1353,-0.1388,-0.1432,-0.1478,-0.1509,-0.1534,-0.1536,-0.152,-0.1508,-0.1507,-0.1487,-0.1359,-0.1347,-0.1332,-0.1522,-0.1522,-0.1522,-0.1522,-0.1523,-0.139,-0.1413,-0.1467,-0.1521,-0.1555,-0.1592,-0.1592,-0.1572,-0.1465,-0.1534,-0.1385,-0.1337,-0.1317,-0.1526,-0.1525,-0.1525,-0.1525,-0.1524,-0.1524,-0.1373,-0.139,-0.1441,-0.1503,-0.1531,-0.1568,-0.1451,-0.1457,-0.1446,-0.1378,-0.1159,-0.1158,-0.1262,-0.1231,-0.123,-0.1229,-0.1228,-0.1227,-0.1226,-0.1323,-0.1381,-0.1366,-0.1448,-0.141,-0.1374,-0.1293,-0.1193,-0.1103,-0.1147,-0.1144,-0.1255,-0.1265,-0.124,-0.121,-0.1213,-0.1215,-0.1217,-0.1218,-0.1248,-0.1258,-0.1212,-0.1176,-0.1115,-0.0983,-0.0993,-0.0847,-0.0713,-0.0674,-0.0959,-0.0971,-0.0894,-0.0908,-0.0873,-0.0747,-0.0747,-0.0747,-0.0747,-0.1125,-0.1167,-0.099,-0.0874,-0.0781,-0.0764,-0.0565,-0.0558,-0.0606,-0.0704,-0.0706,-0.0859,-0.0878,-0.0807,-0.0824,-0.079,-0.0643,-0.0643,-0.0643,-0.1002,-0.0978,-0.078,-0.0736,-0.0599,-0.054,-0.0384,-0.0223,-0.0339,-0.0644,-0.0735,-0.0731,-0.0971,-0.0995,-0.0903,-0.0924,-0.0876,0,0]},{"header":{"parameterUnit":"m.s-1","parameterCategory":2,"la1":30.2992,"la2":30.254,"lo1":-89.0895,"lo2":-89.0443,"dy":0.0025,"dx":0.0025,"nx":19,"ny":19,"refTime":"2026-05-21T09:00:00:Z","depth":"2","parameterNumber":3,"parameterNumberName":"V-component_of_CURRENTS"},"data":[0,0,0,-0.0288,-0.0287,-0.024,-0.0239,-0.0147,-0.0146,0,0,0,0,0,0,0,0,0,0,0,-0.0302,-0.0302,-0.0288,-0.0287,-0.024,-0.0239,-0.0147,-0.0146,0,0,0,0,0,0,0,0,0,0,0,-0.0302,-0.0302,-0.0302,-0.0287,-0.024,-0.0239,-0.0147,-0.0188,0,0,0,0,0,0,0,0,0,0,-0.0236,-0.0259,-0.0302,-0.0302,-0.0287,-0.024,-0.0239,-0.019,-0.0185,-0.0163,0,-0.0164,0,-0.0158,-0.014,-0.014,0,0,0,-0.0274,-0.0263,-0.0253,-0.0302,-0.0286,-0.024,-0.0257,-0.0187,-0.0182,-0.0157,-0.0163,-0.0159,-0.0157,-0.014,-0.0139,-0.011,-0.011,0,0,-0.0277,-0.0287,-0.0257,-0.025,-0.0283,-0.0259,-0.0256,-0.0184,-0.0181,-0.0162,-0.0157,-0.0155,-0.0139,-0.0139,-0.011,-0.011,0,0,0,-0.0293,-0.0289,-0.0281,-0.0254,-0.0251,-0.0258,-0.0255,-0.0184,-0.0182,-0.0156,-0.0154,-0.0139,-0.0138,-0.0109,-0.011,-0.0232,0,0,0,-0.0294,-0.03,-0.0282,-0.0287,-0.0253,-0.0221,-0.0255,-0.0187,-0.0179,-0.0155,-0.0139,-0.0137,-0.0109,-0.011,-0.0228,-0.021,0,0,0,-0.0303,-0.03,-0.0299,-0.0288,-0.0274,-0.0223,-0.0216,-0.0185,-0.0178,-0.014,-0.0137,-0.0109,-0.011,-0.0224,-0.0205,-0.0092,0,0,0,-0.0309,-0.033,-0.0299,-0.0319,-0.0275,-0.0261,-0.0217,-0.0198,-0.0172,-0.0138,-0.0109,-0.011,-0.0223,-0.0203,-0.0092,-0.0116,-0.0118,0,0,-0.0345,-0.0334,-0.0347,-0.0319,-0.0319,-0.0266,-0.0265,-0.0214,-0.0175,-0.0127,-0.0126,-0.0229,-0.0205,-0.0092,-0.016,-0.0161,0,0,0,-0.0365,-0.037,-0.0366,-0.0355,-0.0331,-0.0328,-0.0255,-0.0238,-0.0226,-0.0164,-0.021,-0.0189,-0.0114,-0.0129,-0.013,-0.0114,-0.0113,-0.0113,-0.0113,-0.0411,-0.0398,-0.0438,-0.0418,-0.0406,-0.0352,-0.0346,-0.0308,-0.0259,-0.0281,-0.0279,-0.0255,-0.028,-0.0279,-0.0303,-0.0303,-0.0304,-0.0304,-0.0304,-0.049,-0.0536,-0.0519,-0.0574,-0.0551,-0.0545,-0.0456,-0.0421,-0.0324,-0.0343,-0.0266,-0.0246,-0.0287,-0.0314,-0.0312,-0.031,-0.031,-0.0309,-0.0308,-0.0536,-0.0575,-0.0626,-0.0689,-0.0709,-0.0649,-0.0574,-0.0482,-0.0403,-0.0364,-0.0245,-0.0243,-0.0247,-0.0296,-0.0296,-0.0295,-0.0295,-0.0294,-0.0294,-0.0607,-0.0654,-0.0715,-0.0781,-0.0781,-0.0731,-0.0577,-0.0501,-0.0366,-0.0301,-0.03,-0.0248,-0.0248,-0.024,-0.0286,-0.0288,-0.0289,-0.0289,-0.029,-0.0698,-0.0719,-0.0736,-0.0764,-0.0739,-0.0618,-0.0549,-0.0402,-0.0288,-0.0239,-0.0235,-0.0239,-0.0153,-0.0152,-0.014,-0.0155,-0.0155,-0.0155,-0.0155,-0.0745,-0.0772,-0.0727,-0.0683,-0.0634,-0.0538,-0.0393,-0.0297,-0.0201,-0.0155,-0.0155,-0.024,-0.0246,-0.0167,-0.0166,-0.0153,-0.0172,-0.0172,-0.0172,-0.0815,-0.0758,-0.0698,-0.0643,-0.0563,-0.0444,-0.0277,-0.0137,-0.0101,-0.017,-0.0133,-0.0161,-0.0291,-0.0298,-0.0179,-0.0177,-0.0157,0,0]}],[{"header":{"parameterUnit":"m.s-1","parameterCategory":2,"la1":30.2992,"la2":30.254,"lo1":-89.0895,"lo2":-89.0443,"dy":0.0025,"dx":0.0025,"nx":19,"ny":19,"refTime":"2026-05-21T09:00:00:Z","depth":"4","parameterNumber":2,"parameterNumberName":"U-component_of_CURRENTS"},"data":[0,0,0,-0.1093,-0.1095,-0.1183,-0.1184,-0.1219,-0.1219,0,0,0,0,0,0,0,0,0,0,0,-0.1064,-0.1064,-0.1093,-0.1095,-0.1183,-0.1184,-0.1219,-0.1219,0,0,0,0,0,0,0,0,0,0,0,-0.1063,-0.1064,-0.1065,-0.1096,-0.1183,-0.1184,-0.1219,-0.1172,0,0,0,0,0,0,0,0,0,0,-0.1096,-0.108,-0.1064,-0.1065,-0.1096,-0.1183,-0.1184,-0.117,-0.1174,-0.1156,0,-0.1175,0,-0.1196,-0.1219,-0.1219,0,0,0,-0.1096,-0.1076,-0.1099,-0.1065,-0.1097,-0.1183,-0.1144,-0.1173,-0.1178,-0.1162,-0.1176,-0.1178,-0.1196,-0.1219,-0.122,-0.1216,-0.1216,0,0,-0.1091,-0.1078,-0.1096,-0.1103,-0.1125,-0.1141,-0.1147,-0.1177,-0.1182,-0.1176,-0.1179,-0.1197,-0.122,-0.122,-0.1216,-0.1216,0,0,0,-0.1077,-0.1074,-0.1099,-0.1101,-0.1122,-0.1143,-0.115,-0.1181,-0.1189,-0.118,-0.1197,-0.122,-0.122,-0.1216,-0.1216,-0.1248,0,0,0,-0.1074,-0.1066,-0.1096,-0.1089,-0.1122,-0.1163,-0.1153,-0.1188,-0.1192,-0.1197,-0.122,-0.122,-0.1216,-0.1216,-0.1248,-0.1239,0,0,0,-0.1059,-0.1064,-0.1076,-0.1088,-0.1127,-0.1164,-0.1175,-0.1189,-0.1202,-0.1219,-0.122,-0.1217,-0.1216,-0.1247,-0.1239,-0.1248,0,0,0,-0.1039,-0.1061,-0.1076,-0.111,-0.1126,-0.1177,-0.1175,-0.1216,-0.1235,-0.122,-0.1216,-0.1216,-0.1247,-0.1238,-0.1247,-0.1072,0,0,0,-0.1053,-0.1062,-0.1083,-0.1099,-0.1147,-0.1164,-0.1206,-0.1232,-0.1219,-0.1201,-0.1202,-0.1248,-0.1239,-0.1248,-0.106,0,0,0,0,-0.1079,-0.1091,-0.111,-0.1144,-0.1181,-0.1212,-0.124,-0.1241,-0.1242,-0.1229,-0.1234,-0.1226,-0.1232,-0.1127,-0.1215,-0.1215,-0.1215,-0.1215,-0.1215,-0.1065,-0.1097,-0.1127,-0.1168,-0.12,-0.1246,-0.1264,-0.1261,-0.1256,-0.1255,-0.1244,-0.1256,-0.1146,-0.1244,-0.1244,-0.1245,-0.1245,-0.1245,-0.1245,-0.1066,-0.1079,-0.1125,-0.1161,-0.1203,-0.1232,-0.1267,-0.1275,-0.1271,-0.1256,-0.1261,-0.1156,-0.1248,-0.1247,-0.1247,-0.1246,-0.1246,-0.1246,-0.1246,-0.103,-0.1042,-0.107,-0.1118,-0.116,-0.121,-0.122,-0.1259,-0.1272,-0.1284,-0.1162,-0.1266,-0.1274,-0.1288,-0.1288,-0.1288,-0.1288,-0.1288,-0.1288,-0.0975,-0.1008,-0.1006,-0.1074,-0.1083,-0.1122,-0.1187,-0.119,-0.1237,-0.1154,-0.1282,-0.127,-0.1268,-0.1275,-0.1288,-0.1288,-0.1288,-0.1288,-0.1288,-0.0924,-0.0924,-0.0917,-0.0921,-0.0959,-0.0987,-0.1082,-0.1074,-0.1071,-0.1038,-0.1089,-0.1099,-0.1066,-0.1069,-0.1068,-0.1021,-0.1019,-0.1017,0,-0.0853,-0.0871,-0.0805,-0.0786,-0.0787,-0.0887,-0.0836,-0.0884,-0.0935,-0.0894,-0.1082,-0.114,-0.1146,-0.1111,-0.111,-0.1108,0,0,0,-0.0789,-0.0784,-0.0702,-0.0706,-0.0693,-0.0733,-0.0818,-0.0784,-0.0929,-0.0883,-0.0961,-0.0976,-0.1178,-0.1289,-0.1262,-0.126,-0.1269,0,0]},{"header":{"parameterUnit":"m.s-1","parameterCategory":2,"la1":30.2992,"la2":30.254,"lo1":-89.0895,"lo2":-89.0443,"dy":0.0025,"dx":0.0025,"nx":19,"ny":19,"refTime":"2026-05-21T09:00:00:Z","depth":"4","parameterNumber":3,"parameterNumberName":"V-component_of_CURRENTS"},"data":[0,0,0,-0.021,-0.021,-0.0184,-0.0184,-0.0092,-0.0091,0,0,0,0,0,0,0,0,0,0,0,-0.0217,-0.0217,-0.021,-0.021,-0.0184,-0.0184,-0.0092,-0.0091,0,0,0,0,0,0,0,0,0,0,0,-0.0217,-0.0217,-0.0217,-0.021,-0.0184,-0.0184,-0.0093,-0.0123,0,0,0,0,0,0,0,0,0,0,-0.0154,-0.0174,-0.0217,-0.0217,-0.021,-0.0185,-0.0184,-0.0125,-0.0121,-0.0091,0,-0.0097,0,-0.0097,-0.0085,-0.0085,0,0,0,-0.0197,-0.0178,-0.0173,-0.0217,-0.021,-0.0185,-0.0192,-0.0124,-0.0119,-0.0086,-0.0096,-0.0093,-0.0096,-0.0085,-0.0084,0.0057,0.0058,0,0,-0.0198,-0.0205,-0.0177,-0.0171,-0.0214,-0.0193,-0.0192,-0.0121,-0.0118,-0.0095,-0.0091,-0.0094,-0.0084,-0.0083,0.0056,0.0057,0,0,0,-0.0211,-0.0206,-0.0204,-0.0174,-0.0177,-0.0193,-0.0191,-0.0121,-0.0122,-0.009,-0.0093,-0.0083,-0.0082,0.0056,0.0057,0.0085,0,0,0,-0.0211,-0.0215,-0.0205,-0.0208,-0.018,-0.0158,-0.0192,-0.0127,-0.0119,-0.0094,-0.0083,-0.0081,0.0055,0.0056,0.0082,0.0012,0,0,0,-0.0216,-0.0215,-0.0217,-0.0209,-0.0204,-0.0159,-0.0155,-0.0125,-0.0121,-0.0085,-0.0081,0.0054,0.0056,0.0079,0.0011,-0.0069,0,0,0,-0.0217,-0.0225,-0.0217,-0.0219,-0.0205,-0.0162,-0.0156,-0.0128,-0.01,-0.0083,0.0055,0.0057,0.0078,0.001,-0.0069,-0.0112,0,0,0,-0.0228,-0.0226,-0.0226,-0.0218,-0.0181,-0.0164,-0.0088,-0.0061,-0.0051,0.0036,0.0039,0.0083,0.0011,-0.0069,0.001,0,0,0,0,-0.0229,-0.0222,-0.0212,-0.0188,-0.0158,-0.0106,-0.0053,-0.0013,0.0057,-0.0027,0.0116,0.0068,0.0017,-0.0001,0.0067,0.0066,0.0066,0.0066,0.0066,-0.0236,-0.0214,-0.0195,-0.015,-0.0119,-0.0043,0.0004,0.0076,0.0106,0.015,0.012,0.0108,0.0101,0.0196,0.0197,0.0197,0.0197,0.0197,0.0197,-0.0229,-0.0228,-0.0179,-0.0158,-0.0098,-0.0038,0.0071,0.0109,0.0156,0.0198,0.0148,0.0069,0.0201,0.02,0.0199,0.0199,0.0199,0.0198,0.0198,-0.0231,-0.0237,-0.0214,-0.0196,-0.0164,-0.0094,-0.0091,-0.0008,0.0099,0.0094,-0.0002,0.0075,0.0032,0.0047,0.0046,0.0046,0.0045,0.0045,0.0044,-0.0275,-0.0249,-0.0282,-0.0267,-0.0287,-0.0297,-0.0235,-0.0202,-0.0116,-0.0045,0.0038,0.0054,0.0059,0.0021,0.0035,0.0037,0.0038,0.0039,0.0039,-0.0338,-0.0348,-0.0394,-0.0425,-0.0462,-0.0464,-0.0425,-0.0348,-0.034,-0.0291,-0.0112,-0.0102,-0.0156,-0.0148,-0.0195,-0.0246,-0.0246,-0.0247,0,-0.042,-0.0415,-0.0507,-0.0567,-0.0601,-0.0559,-0.052,-0.0467,-0.0359,-0.034,-0.0339,-0.0141,-0.013,-0.0193,-0.0187,-0.0243,0,0,0,-0.0506,-0.0512,-0.0598,-0.0625,-0.0654,-0.0564,-0.0504,-0.0476,-0.036,-0.0356,-0.0264,-0.0259,-0.012,0.0008,-0.0055,-0.0049,-0.0115,0,0]}]]